星链-4598 (STARLINK-4598 )

导读 | 星芒AI

STARLINK-4598 是 SpaceX Starlink 卫星互联网项目中的一颗低轨卫星,属于“星链”计划的组成部分。该卫星由 SpaceX 制造并发射,旨在为全球用户提供高速互联网服务。它运行在近地轨道,与其他数千颗星链卫星协同工作,构建一个覆盖全球的宽带通信网络。STARLINK-4598 的部署有助于提升偏远地区的网络接入能力,推动全球数字连接的发展。

基本信息
目录编号:
53630
目录名称:
STARLINK-4598
国际标识:
2022-104AU
轨道中心:
EARTH
卫星名称:
星链-4598
卫星全名:
星链-4598 (STARLINK-4598 )
卫星状态:
在轨 (已飞行1211 天)
发射日期:
2022-08-28 UTC
国别 :
美国 (US)
星等 :
--
轨道信息
数据来源 国际轨道数据 AOE轨道数据
星历时间 2025-12-21T06:13:54+0800
10小时前
查看轨道信息
2025-12-16T17:00:00+0800
4天前
查看轨道信息
半长轴 6917.904km 6917.863km
偏心率 0.0001238 0.0001513
轨道倾角 53.216° 53.215°
近地点辐角 98.846° 81.928°
升交点赤经 217.778° 238.212°
平近点角 261.267° 22.826°
近地点 538.91km 538.681km
远地点 540.624km 540.775km
周期 95.438分钟 95.437分钟
每日圈数 15.088324 15.08846
详细信息
固有亮度:
5
最大亮度:
2.5
卫星平台:
Starlink v1.5
覆盖范围:
全球
运营商:
太空探索技术公司
运营商所在国:
美国
制造商(研发单位):
太空探索技术公司
制造商所在国:
美国
使用方式:
暂无
卫星简介
星链(Starlink)计划是由太空探索技术公司(SpaceX)提出的一个巨型低轨卫星互联网星座项目,计划在2019年至2024年间在太空搭建由约1.2万颗卫星组成的“星链”网络,其中1584颗将部署在地球上空550千米处的近地轨道,并从2020年开始工作。该卫星仍在工作。
2D轨道图
3D轨道图
轨道高度分析图
轨道倾角分析图
轨道综合分析图
查看轨道综合分析图